User: anonymous   Login
Location: NC_16_and_73
(35.4490°N, 81.0150°W)
Time: 11:14:30
(UTC-05:00)
Language:

Cosmos-2242 - Orbit

View from above orbital plane
View from above orbital plane
View from above satellite
View from above satellite

Ground track
Ground track

The orbit data is extracted from the following two-line orbital elements,

1 22626U 93024A   16339.34084413  .00000287  00000-0  28779-4 0  9999
2 22626  82.5234 225.4863 0020350  50.3315 309.9693 14.87574229277184
Epoch (UTC): 04 December 2016 08:10:48
Eccentricity: 0.0020350
inclination: 82.5234°
perigee height: 591 km
apogee height: 620 km
right ascension of ascending node: 225.4863°
argument of perigee: 50.3315°
revolutions per day: 14.87574229
mean anomaly at epoch: 309.9693°
orbit number at epoch: 27718

The dashed part of the orbit path shows where the satellite is in the earth's shadow,  

DLR